Regional Weather Roundup
Issued by NWS

Home | Current Version | Previous Version | Text Only | Print | Product List | Glossary Off
Versions: 1 2 3 4 5 6 7 8 9 10 11 12 13 14 15 16 17 18 19 20 21 22 23 24 25 26 27 28 29 30 31 32 33 34 35 36 37 38 39 40 41 42 43 44 45 46 47 48 49 50

000
ASUS43 KLOT 170903
RWRIL

ILLINOIS REGIONAL WEATHER ROUNDUP
NATIONAL WEATHER SERVICE CHICAGO/ROMEOVILLE IL
300 AM CST WED JAN 17 2018

NOTE: "FAIR" INDICATES FEW OR NO CLOUDS BELOW 12,000 FEET WITH NO
SIGNIFICANT WEATHER AND/OR OBSTRUCTIONS TO VISIBILITY.

* THESE STATIONS ARE NOT UNDER NWS QUALITY CONTROL. THEY ALSO MAY NOT
  REPORT WEATHER SUCH AS PRECIPITATION OR FOG.

ILZ001-002-007-009-015-016-024-171000-
NORTHWEST ILLINOIS

CITY           SKY/WX    TMP DP  RH WIND       PRES   REMARKS
MOLINE         FAIR       1  -3  83 W6        30.61S WCI -10
STERLING*      FAIR      -2  -5  87 SW6       30.59S WCI -14
SAVANNA*       FAIR       1  -3  83 W5        30.59S WCI  -8
$$

ILZ003-004-008-010-011-017-018-171000-
NORTH CENTRAL ILLINOIS

CITY           SKY/WX    TMP DP  RH WIND       PRES   REMARKS
ROCKFORD       FAIR       1  -3  83 CALM      30.57R
FREEPORT*      FAIR       0  -3  86 W7        30.56S WCI -13
ROCHELLE*      FAIR      -6 -10  83 SW7       30.57R WCI -20
DE KALB*       FAIR       3   0  87 W8        30.54R WCI -11
PERU*          FAIR       0  -4  84 W8        30.59S WCI -15
$$

ILZ005-006-012>014-019>023-171000-
NORTHEAST ILLINOIS

CITY           SKY/WX    TMP DP  RH WIND       PRES   REMARKS
CHICAGO-OHARE  FAIR       9   4  80 W10       30.53R WCI  -5
CHICAGO-MIDWAY FAIR      11   6  81 W6        30.54R WCI   1
AURORA         FAIR       0  -4  83 W9        30.56R WCI -15
LANSING*       FAIR       6   5  93 W5        30.54R WCI  -2
JOLIET*        FAIR       2  -1  88 CALM      30.56S
WAUKEGAN       FAIR       9   3  77 W7        30.51R WCI  -2
DUPAGE AIRPORT FAIR       4   2  91 NW3       30.53R
KANKAKEE*      FAIR       2  -2  83 W12       30.57R WCI -15
WHEELING       FAIR       9   5  84 W5        30.54S WCI   1
MORRIS*        FAIR       2  -1  84 W9        30.56S WCI -12
ROMEOVILLE*    FAIR       3   1  89 NW7       30.55R WCI  -9
NORTHERLY ISL    N/A     14   8  77 W15         N/A  WCI  -1
$$

LMZ740>746-171000-
SOUTHERN LAKE MICHIGAN

STATION/POSITION SKY/WX   TEMP    WIND        PRES    VSBY  WAVE
                          AIR SEA DIR/SP/G                  HT/PER
                          (F)     (DEG/KT/KT) (MB)    (MI)  (FT/S)
HARRISON CRIB              17     290/ 14/ 15   N/A
BURNHAM HARBOR             14     270/ 10/ 14   N/A
CALUMET HARBOR             12     260/  6/  8 1032.8R
BURNS HARBOR               21     300/ 11/ 14 1033.5R
MICHIGAN CITY              23     280/ 18/ 20   N/A
$$

ILZ025>027-034>036-040-047-049-050-058-095>099-171000-
WEST-CENTRAL ILLINOIS

CITY           SKY/WX    TMP DP  RH WIND       PRES   REMARKS
QUINCY         CLEAR      0  -4  83 W3        30.65R
GALESBURG*     FAIR      -2  -5  87 W5        30.62S WCI -12
MACOMB*        PTCLDY    -2  -5  87 W8        30.66S WCI -17
JACKSONVILLE*  CLOUDY     1  -3  80 W7        30.65S WCI -11
PITTSFIELD*    CLOUDY     2  -3  81 W6        30.67R WCI  -9
$$

ILZ028>032-037-038-041>044-048-051>054-059>061-171000-
CENTRAL ILLINOIS

CITY           SKY/WX    TMP DP  RH WIND       PRES   REMARKS
PONTIAC        FAIR       2   0  91 W13       30.59S WCI -15
BLOOMINGTON    FAIR       0  -3  87 W12       30.58S WCI -17
DECATUR        MOCLDY     3   0  87 W9        30.61S WCI -12
PEORIA         FAIR       0  -4  83 W5        30.63R WCI -10
LACON*         FAIR       1  -3  85 SW3       30.61R
LINCOLN*       FAIR       3  -1  85 W5        30.64R WCI  -6
SPRINGFIELD    FAIR       0  -5  79 W7        30.65R WCI -13
TAYLORVILLE    FAIR       0  -4  82 W6        30.64S WCI -11
$$

ILZ033-039-045-046-055>057-062-063-171000-
EAST-CENTRAL ILLINOIS

CITY           SKY/WX    TMP DP  RH WIND       PRES   REMARKS
CHAMPAIGN      FAIR      -2  -6  83 W9        30.59R WCI -18
DANVILLE*      FAIR       2  -2  85 W8        30.54S WCI -12
RANTOUL*       FAIR       2  -1  85 W12       30.57S WCI -14
MATTOON        FAIR       2  -1  88 W9        30.59S WCI -13
PARIS*         FAIR       0  -3  87 W10       30.60S WCI -17
$$

ILZ079-100>102-171000-
SOUTHWEST ILLINOIS

CITY           SKY/WX    TMP DP  RH WIND       PRES   REMARKS
ALTON          CLEAR      2  -1  89 W6        30.68S WCI  -9
BELLEVILLE     CLEAR      5  -2  73 NW3       30.67S
CAHOKIA*       CLEAR      8   0  69 NW8       30.69S WCI  -4
SPARTA*        CLOUDY    11   5  79 NW6       30.68F WCI   1
$$

ILZ064>066-069>071-074>076-080>082-084>086-088>090-092>094-171000-
SOUTH-CENTRAL ILLINOIS

CITY           SKY/WX    TMP DP  RH WIND       PRES   REMARKS
CARBONDALE     CLOUDY    10   5  80 NW6       30.69R WCI   0
CAIRO*         CLOUDY    10   4  75 N9        30.70R WCI  -3
EFFINGHAM*     FAIR       4   0  85 W6        30.65S WCI  -7
MARION         FLURRIES  10   4  77 NW6       30.68S WCI   0
MT. VERNON     FAIR       5   0  79 CALM      30.67S
CENTRALIA*     CLEAR      7   3  83 W7        30.66S WCI  -4
SALEM*         FAIR       7   1  77 W6        30.66S WCI  -3
METROPOLIS*    CLOUDY    10   3  75 N9        30.70R WCI  -4
$$

ILZ067-068-072-073-078-083-087-091-171000-
SOUTHEAST ILLINOIS

CITY           SKY/WX    TMP DP  RH WIND       PRES   REMARKS
LAWRENCEVILLE  CLOUDY     8   3  80 W9        30.64S WCI  -5
FLORA*         FAIR       8   2  76 W10       30.66S WCI  -6
FAIRFIELD*     FAIR       7   2  80 CALM      30.65S
HARRISBURG*    FLURRIES  10   6  82 NW3       30.69R
ROBINSON*      FAIR       3  -1  85 W7        30.65S WCI -10
CARMI*         CLOUDY    10   6  82 NW9       30.66S WCI  -2
$$

ABBREVIATIONS USED IN REMARKS
   TC - TEMPERATURE IN CELSIUS
  WCI - WIND CHILL INDEX
   HX - HEAT INDEX
  VSB - VISIBILITY
$$





USA.gov is the U.S. government's official web portal to all federal, state and local government web resources and services.